Regional Weather Roundup
Issued by NWS

Home | Current Version | Previous Version | Graphics & Text | Print | Product List | Glossary On
Versions: 1 2 3 4 5 6 7 8 9 10 11 12 13 14 15 16 17 18 19 20 21 22 23 24 25 26 27 28 29 30 31 32 33 34 35 36 37 38 39 40 41 42 43 44 45 46 47 48 49 50
000
ASUS45 KBOI 241310
RWRID
WEATHER ROUNDUP FOR IDAHO
NATIONAL WEATHER SERVICE BOISE ID
600 AM MST SAT JAN 24 2015

NOTE: "FAIR" INDICATES FEW OR NO CLOUDS BELOW 12000 FEET
WITH NO SIGNIFICANT WEATHER AND/OR OBSTRUCTIONS TO VISIBILITY

IDZ012-014-241400-
SOUTHWEST IDAHO


CITY           SKY/WX    TMP DP  RH WIND       PRES   REMARKS
BOISE          CLOUDY    31  27  85 S6        30.50S WCI  25
CALDWELL       CLOUDY    30  21  69 E6        30.52F WCI  24
MOUNTAIN HOME  CLOUDY    29  27  94 E9        30.48F WCI  20
$$

IDZ016-017-241400-
SOUTHCENTRAL IDAHO


CITY           SKY/WX    TMP DP  RH WIND       PRES   REMARKS
BURLEY         FOG       29  28  96 CALM      30.45R VSB 3/4
JEROME         CLOUDY    24  23  96 NE15      30.45F FOG     WCI  11
TWIN FALLS     FOG       30  27  88 NW3       30.46R VSB 1/4
$$

IDZ019>023-241400-
SOUTHEAST IDAHO


CITY           SKY/WX    TMP DP  RH WIND       PRES   REMARKS
IDAHO FALLS    CLOUDY    26  24  92 N5        30.47R FOG     WCI  20
POCATELLO      CLOUDY    28  27  96 NE6       30.44F WCI  22
REXBURG        CLOUDY    19  17  92 NE6       30.46S WCI  11
$$

IDZ006-010-011-018-031-032-241400-
CENTRAL IDAHO MOUNTAINS


CITY           SKY/WX    TMP DP  RH WIND       PRES   REMARKS
MCCALL         CLOUDY    29  25  85 CALM      30.40F
HAILEY         PTCLDY    18  16  93 N5        30.42F WCI  11
STANLEY          N/A     20  13  74 CALM      30.43S
SALMON         CLOUDY    23  19  86 CALM      30.40S
CHALLIS        CLOUDY    26  21  81 CALM      30.37F
$$

IDZ002-004-006-007-026-241400-
NORTHERN IDAHO


CITY           SKY/WX    TMP DP  RH WIND       PRES   REMARKS
LEWISTON       CLOUDY    48  39  71 CALM      30.29F
LOWELL           N/A     35  33  92 CALM      30.40S
COEUR D`ALENE  CLOUDY    39  39 100 NW5       30.24R
MULLAN PASS    FOG       35  35 100 W9G17     30.20F VSB 3/4 WCI  28
$$


USA.gov is the U.S. government's official web portal to all federal, state and local government web resources and services.